This demonstration page uses our WeatherBlox Daily Observations layout. Learn more.

41.55636, -103.73856

Hourly Observations for December 28, 2015

Temp ( °F °C ) Dew Point ( °F °C ) Humidity (%) Winds ( mph kmh ) Pressure ( in mb ) Visibility ( mi km ) Precip ( " mm )
12:53 am 00:53 Clear 1 -17.2 -3 -19.4 83 83 ESE 13 20 30.29 1026 10 16.0934 0 0
1:53 am 01:53 Clear 3 -16.1 0 -17.8 87 87 ESE 13 20 30.26 1025 10 16.0934 0 0
2:53 am 02:53 Clear 1 -17.2 -2 -18.9 87 87 E 7 11 30.23 1024 10 16.0934 0 0
3:53 am 03:53 Clear 3 -16.1 -1 -18.3 83 83 ESE 9 15 30.2 1023 10 16.0934 0 0
4:53 am 04:53 Mostly Clear -2 -18.9 -5 -20.6 87 87 Calm 30.21 1023 7 11.26538 0 0
5:19 am 05:19 Mostly Cloudy -3 -19.4 -7 -21.7 82 82 Calm 30.36 1028 8 12.87472 0 0
5:26 am 05:26 Mostly Cloudy with Mist and Fog -2 -18.9 -6 -21.1 83 83 SSE 5 7 30.42 1030 1.5 2.41401 0 0
5:48 am 05:48 Cloudy with Freezing Fog 0 -18 -4 -20 84 84 E 6 9 30.39 1029 0.25 0.402335 0 0
5:53 am 05:53 Mostly Cloudy with Freezing Fog -1 -18.3 -4 -20 87 87 E 6 9 30.21 1023 0.25 0.402335 0 0
5:58 am 05:58 Mostly Cloudy with Freezing Fog -1 -18.3 -4 -20 87 87 E 5 7 30.36 1028 0.5 0.80467 0 0
6:13 am 06:13 Mostly Cloudy with Freezing Fog 0 -17.8 -3 -19.4 87 87 E 5 7 30.36 1028 0.25 0.402335 0 0
6:53 am 06:53 Mostly Cloudy with Freezing Fog 1 -17.2 -1 -18.3 91 91 SSE 6 9 30.17 1022 0.25 0.402335 0 0
7:03 am 07:03 Mostly Cloudy with Freezing Fog 1 -17 0 -18 92 92 SE 7 11 30.33 1027 0.25 0.402335 0 0
7:53 am 07:53 Mostly Cloudy with Freezing Fog 0 -17.8 -2 -18.9 91 91 ESE 8 13 30.16 1021 5 8.0467 0 0
8:53 am 08:53 Mostly Cloudy with Freezing Fog 1 -17.2 -2 -18.9 87 87 ESE 7 11 30.14 1021 5 8.0467 0 0
9:33 am 09:33 Cloudy with Freezing Fog 2 -16.7 1 -17.2 96 96 ESE 6 9 30.3 1026 0.25 0.402335 0 0
9:53 am 09:53 Cloudy with Freezing Fog 4 -15.6 2 -16.7 91 91 E 3 6 30.1 1019 0.5 0.80467 0 0
10:01 am 10:01 Mostly Cloudy with Mist and Fog 5 -15 5 -15 100 100 Calm 30.27 1025 2 3.21868 0 0
10:07 am 10:07 Partly Cloudy with Mist and Fog 6 -14.4 6 -14.4 100 100 Calm 30.21 1023 5 8.0467 0 0
10:53 am 10:53 Sunny 11 -11.7 7 -13.9 84 84 ESE 6 9 30.06 1018 10 16.0934 0 0
11:53 am 11:53 Sunny 12 -11.1 7 -13.9 80 80 ESE 13 20 30.02 1017 10 16.0934 0 0.0254
12:53 pm 12:53 Sunny 14 -10 8 -13.3 77 77 ESE 10 17 29.99 1016 10 16.0934 0 0
1:53 pm 13:53 Sunny 15 -9.4 9 -12.8 77 77 E 8 13 29.97 1015 10 16.0934 0 0
2:53 pm 14:53 Sunny 15 -9.4 9 -12.8 77 77 Calm 29.98 1015 10 16.0934 0 0
3:53 pm 15:53 Sunny 13 -10.6 7 -13.9 77 77 ESE 7 11 29.97 1015 10 16.0934 0 0
4:53 pm 16:53 Clear 9 -12.8 4 -15.6 80 80 ESE 6 9 30.01 1016 10 16.0934 0 0
5:53 pm 17:53 Clear 6 -14.4 3 -16.1 87 87 N 3 6 30.02 1017 9 14.48406 0 0
6:53 pm 18:53 Clear 3 -16.1 -1 -18.3 83 83 N 5 7 30.04 1017 10 16.0934 0 0
7:21 pm 19:21 Mostly Clear 1 -17.2 -4 -20 79 79 NNE 6 9 30.21 1023 9 14.48406 0 0
7:53 pm 19:53 Clear 0 -17.8 -3 -19.4 87 87 Calm 30.06 1018 10 16.0934 0 0
8:53 pm 20:53 Clear 1 -17.2 -3 -19.4 83 83 N 7 11 30.05 1018 9 14.48406 0 0
9:53 pm 21:53 Clear 1 -17.2 -4 -20 79 79 N 3 6 30.06 1018 10 16.0934 0 0
10:53 pm 22:53 Clear 0 -17.8 -4 -20 83 83 WNW 6 9 30.05 1018 9 14.48406 0 0
11:53 pm 23:53 Clear -3 -19.4 -7 -21.7 82 82 NNW 6 9 30.06 1018 9 14.48406 0 0

Powered by AerisWeather